| time (UTC) | temp F | wind direction | speed knots | gust knots | rain 1hr in | rain 24hr in | rain mn in | humidity % | barometer mb |
| 20260508154614 | 61 | 270 | 4.3 | 13.0 | 0.00 | 0.00 | 0.00 | ||
| 20260508154015 | 62 | 225 | 7.0 | 12.2 | 0.00 | 0.00 | 0.00 | ||
| 20260508153414 | 61 | 270 | 1.7 | 12.2 | 0.00 | 0.00 | 0.00 | ||
| 20260508152815 | 60 | 225 | 4.3 | 12.2 | 0.00 | 0.00 | 0.00 | ||
| 20260508152214 | 61 | 180 | 1.7 | 12.2 | 0.00 | 0.00 | 0.00 | ||
| 20260508151615 | 61 | 225 | 1.7 | 9.6 | 0.00 | 0.00 | 0.00 | ||
| 20260508150414 | 60 | 315 | 2.6 | 9.6 | 0.00 | 0.00 | 0.00 | ||
| 20260508145813 | 59 | 225 | 1.7 | 11.3 | 0.00 | 0.00 | 0.00 | ||
| 20260508145213 | 58 | 270 | 5.2 | 11.3 | 0.00 | 0.00 | 0.00 | ||
| 20260508144613 | 59 | 225 | 5.2 | 11.3 | 0.00 | 0.00 | 0.00 | ||
| 20260508143414 | 60 | 225 | 2.6 | 11.3 | 0.00 | 0.00 | 0.00 | ||
| 20260508142814 | 60 | 225 | 1.7 | 6.1 | 0.00 | 0.00 | 0.00 | ||
| 20260508142213 | 58 | 225 | 0.9 | 9.6 | 0.00 | 0.00 | 0.00 | ||
| 20260508141613 | 58 | 270 | 1.7 | 9.6 | 0.00 | 0.00 | 0.00 | ||
| 20260508140514 | 58 | 270 | 0.9 | 10.4 | 0.00 | 0.00 | 0.00 | ||
| 20260508135914 | 58 | 225 | 4.3 | 10.4 | 0.00 | 0.00 | 0.00 | ||
| 20260508135314 | 58 | 180 | 1.7 | 9.6 | 0.00 | 0.00 | 0.00 | ||
| 20260508134713 | 58 | 135 | 1.7 | 7.0 | 0.00 | 0.00 | 0.00 | ||
| 20260508134113 | 58 | 225 | 2.6 | 7.0 | 0.00 | 0.00 | 0.00 | ||
| 20260508133513 | 58 | 225 | 4.3 | 10.4 | 0.00 | 0.00 | 0.00 | ||
| 20260508132913 | 58 | 270 | 1.7 | 11.3 | 0.00 | 0.00 | 0.00 | ||
| 20260508131614 | 58 | 270 | 2.6 | 11.3 | 0.00 | 0.00 | 0.00 | ||
| 20260508130418 | 57 | 225 | 4.3 | 12.2 | 0.00 | 0.00 | 0.00 | ||
| 20260508125819 | 56 | 270 | 2.6 | 12.2 | 0.00 | 0.00 | 0.00 | ||
| 20260508125218 | 56 | 225 | 2.6 | 7.8 | 0.00 | 0.00 | 0.00 | ||
| 20260508124619 | 55 | 315 | 1.7 | 7.8 | 0.00 | 0.00 | 0.00 | ||
| 20260508124018 | 55 | 270 | 4.3 | 7.8 | 0.00 | 0.00 | 0.00 | ||
| 20260508123418 | 55 | 225 | 4.3 | 7.8 | 0.00 | 0.00 | 0.00 | ||
| 20260508122817 | 55 | 225 | 2.6 | 8.7 | 0.00 | 0.00 | 0.00 | ||
| 20260508122217 | 55 | 180 | 0.9 | 7.8 | 0.00 | 0.00 | 0.00 | ||
| 20260508121615 | 55 | 225 | 1.7 | 8.7 | 0.00 | 0.00 | 0.00 | ||
| 20260508120513 | 54 | 270 | 0.9 | 7.8 | 0.00 | 0.00 | 0.00 | ||
| 20260508115913 | 54 | 225 | 2.6 | 7.8 | 0.00 | 0.00 | 0.00 | ||
| 20260508115314 | 54 | 225 | 2.6 | 7.8 | 0.00 | 0.00 | 0.00 | ||
| 20260508114713 | 54 | 225 | 2.6 | 7.8 | 0.00 | 0.00 | 0.00 | ||
| 20260508114112 | 54 | 225 | 6.1 | 7.8 | 0.00 | 0.00 | 0.00 | ||
| 20260508113513 | 54 | 180 | 0.9 | 5.2 | 0.00 | 0.00 | 0.00 | ||
| 20260508112913 | 54 | 225 | 1.7 | 6.1 | 0.00 | 0.00 | 0.00 | ||
| 20260508112314 | 54 | 225 | 1.7 | 5.2 | 0.00 | 0.00 | 0.00 | ||
| 20260508111713 | 54 | 225 | 2.6 | 5.2 | 0.00 | 0.00 | 0.00 | ||
| 20260508110513 | 54 | 225 | 1.7 | 4.3 | 0.00 | 0.00 | 0.00 | ||
| 20260508105914 | 54 | 270 | 0.9 | 4.3 | 0.00 | 0.00 | 0.00 | ||
| 20260508105313 | 54 | 270 | 0.0 | 4.3 | 0.00 | 0.00 | 0.00 | ||
| 20260508104714 | 54 | 270 | 0.9 | 4.3 | 0.00 | 0.00 | 0.00 | ||
| 20260508104113 | 54 | 270 | 0.9 | 2.6 | 0.00 | 0.00 | 0.00 | ||
| 20260508103514 | 54 | 270 | 0.9 | 2.6 | 0.00 | 0.00 | 0.00 | ||
| 20260508102913 | 54 | 270 | 0.9 | 3.5 | 0.00 | 0.00 | 0.00 | ||
| 20260508102313 | 54 | 315 | 1.7 | 4.3 | 0.00 | 0.00 | 0.00 | ||
| 20260508101713 | 54 | 270 | 0.9 | 4.3 | 0.00 | 0.00 | 0.00 | ||
| 20260508100518 | 54 | 270 | 0.9 | 5.2 | 0.00 | 0.00 | 0.00 | ||
| 20260508095918 | 54 | 225 | 0.9 | 5.2 | 0.00 | 0.00 | 0.00 | ||
| 20260508095319 | 54 | 270 | 1.7 | 6.1 | 0.00 | 0.00 | 0.00 | ||
| 20260508094718 | 54 | 270 | 1.7 | 6.1 | 0.00 | 0.00 | 0.00 | ||
| 20260508094118 | 54 | 225 | 1.7 | 4.3 | 0.00 | 0.00 | 0.00 | ||
| 20260508093517 | 54 | 315 | 1.7 | 4.3 | 0.00 | 0.00 | 0.00 | ||
| 20260508092916 | 54 | 315 | 0.9 | 5.2 | 0.00 | 0.00 | 0.00 | ||
| 20260508092314 | 54 | 270 | 0.9 | 5.2 | 0.00 | 0.00 | 0.00 | ||
| 20260508091714 | 54 | 225 | 1.7 | 5.2 | 0.00 | 0.00 | 0.00 | ||
| 20260508090516 | 54 | 270 | 1.7 | 4.3 | 0.00 | 0.00 | 0.00 | ||
| 20260508085915 | 54 | 315 | 0.9 | 5.2 | 0.00 | 0.00 | 0.00 | ||
| 20260508085315 | 54 | 315 | 1.7 | 5.2 | 0.00 | 0.00 | 0.00 | ||
| 20260508084716 | 54 | 270 | 2.6 | 3.5 | 0.00 | 0.00 | 0.00 | ||
| 20260508084115 | 54 | 315 | 0.9 | 3.5 | 0.00 | 0.00 | 0.00 | ||
| 20260508083515 | 54 | 270 | 2.6 | 3.5 | 0.00 | 0.00 | 0.00 | ||
| 20260508082914 | 54 | 270 | 1.7 | 3.5 | 0.00 | 0.00 | 0.00 | ||
| 20260508082315 | 54 | 270 | 1.7 | 3.5 | 0.00 | 0.00 | 0.00 | ||
| 20260508081714 | 54 | 270 | 0.9 | 3.5 | 0.00 | 0.00 | 0.00 | ||
| 20260508080415 | 54 | 270 | 0.9 | 4.3 | 0.00 | 0.00 | 0.00 | ||
| 20260508075816 | 54 | 315 | 0.9 | 4.3 | 0.00 | 0.00 | 0.00 | ||
| 20260508075215 | 54 | 270 | 0.9 | 4.3 | 0.00 | 0.00 | 0.00 | ||
| 20260508074615 | 54 | 270 | 0.9 | 5.2 | 0.00 | 0.00 | 0.00 | ||
| 20260508074015 | 54 | 270 | 3.5 | 5.2 | 0.00 | 0.00 | 0.00 | ||
| 20260508073415 | 54 | 270 | 4.3 | 4.3 | 0.00 | 0.00 | 0.00 | ||
| 20260508072815 | 54 | 270 | 0.9 | 4.3 | 0.00 | 0.00 | 0.00 | ||
| 20260508072214 | 54 | 270 | 1.7 | 3.5 | 0.00 | 0.00 | 0.00 | ||
| 20260508071613 | 54 | 270 | 1.7 | 5.2 | 0.00 | 0.00 | 0.00 | ||
| 20260508070514 | 54 | 315 | 1.7 | 4.3 | 0.00 | 0.00 | 0.00 | ||
| 20260508065913 | 54 | 270 | 1.7 | 5.2 | 0.00 | 0.00 | 0.00 | ||
| 20260508065314 | 54 | 270 | 0.0 | 5.2 | 0.00 | 0.00 | 0.00 | ||
| 20260508064713 | 54 | 270 | 0.9 | 6.1 | 0.00 | 0.00 | 0.00 | ||
| 20260508064113 | 54 | 315 | 0.9 | 6.1 | 0.00 | 0.00 | 0.00 | ||
| 20260508063513 | 54 | 315 | 1.7 | 4.3 | 0.00 | 0.00 | 0.00 | ||
| 20260508062913 | 54 | 315 | 0.9 | 5.2 | 0.00 | 0.00 | 0.00 | ||
| 20260508062314 | 54 | 270 | 1.7 | 5.2 | 0.00 | 0.00 | 0.00 | ||
| 20260508061713 | 54 | 270 | 1.7 | 5.2 | 0.00 | 0.00 | 0.00 | ||
| 20260508060414 | 54 | 225 | 2.6 | 8.7 | 0.00 | 0.00 | 0.00 | ||
| 20260508055815 | 54 | 270 | 1.7 | 8.7 | 0.00 | 0.00 | 0.00 | ||
| 20260508055214 | 54 | 270 | 1.7 | 6.1 | 0.00 | 0.00 | 0.00 | ||
| 20260508054614 | 54 | 270 | 2.6 | 8.7 | 0.00 | 0.00 | 0.00 | ||
| 20260508054014 | 54 | 315 | 1.7 | 8.7 | 0.00 | 0.00 | 0.00 | ||
| 20260508053414 | 54 | 315 | 0.9 | 9.6 | 0.00 | 0.00 | 0.00 | ||
| 20260508052813 | 55 | 225 | 0.9 | 6.1 | 0.00 | 0.00 | 0.00 | ||
| 20260508052213 | 55 | 315 | 0.0 | 6.1 | 0.00 | 0.00 | 0.00 | ||
| 20260508051614 | 55 | 315 | 1.7 | 6.1 | 0.00 | 0.00 | 0.00 | ||
| 20260508050014 | 55 | 45 | 1.7 | 8.7 | 0.00 | 0.00 | 0.00 | ||
| 20260508045415 | 55 | 270 | 0.9 | 9.6 | 0.00 | 0.00 | 0.00 | ||
| 20260508044814 | 56 | 225 | 2.6 | 8.7 | 0.00 | 0.00 | 0.00 | ||
| 20260508044214 | 56 | 270 | 1.7 | 4.3 | 0.00 | 0.00 | 0.00 | ||
| 20260508043615 | 56 | 225 | 0.9 | 2.6 | 0.00 | 0.00 | 0.00 | ||
| 20260508043014 | 56 | 270 | 1.7 | 2.6 | 0.00 | 0.00 | 0.00 | ||
| 20260508041714 | 57 | 225 | 0.9 | 2.6 | 0.00 | 0.00 | 0.00 | ||
| 20260508040514 | 56 | 225 | 0.0 | 2.6 | 0.00 | 0.00 | 0.00 | ||
| 20260508035915 | 56 | 225 | 0.9 | 2.6 | 0.00 | 0.00 | 0.00 | ||
| 20260508035315 | 56 | 225 | 0.0 | 2.6 | 0.00 | 0.00 | 0.00 | ||
| 20260508034714 | 57 | 225 | 0.9 | 2.6 | 0.00 | 0.00 | 0.00 | ||
| 20260508034115 | 57 | 225 | 0.0 | 2.6 | 0.00 | 0.00 | 0.00 | ||
| 20260508033514 | 57 | 270 | 0.9 | 4.3 | 0.00 | 0.00 | 0.00 | ||
| 20260508032915 | 57 | 270 | 0.9 | 4.3 | 0.00 | 0.00 | 0.00 | ||
| 20260508032314 | 57 | 225 | 0.9 | 3.5 | 0.00 | 0.00 | 0.00 | ||
| 20260508031714 | 57 | 270 | 1.7 | 2.6 | 0.00 | 0.00 | 0.00 | ||
| 20260508030519 | 57 | 270 | 0.0 | 2.6 | 0.00 | 0.00 | 0.00 | ||
| 20260508025918 | 57 | 180 | 0.0 | 2.6 | 0.00 | 0.00 | 0.00 | ||
| 20260508025318 | 57 | 270 | 0.0 | 2.6 | 0.00 | 0.00 | 0.00 | ||
| 20260508024714 | 57 | 225 | 0.0 | 4.3 | 0.00 | 0.00 | 0.00 | ||
| 20260508024114 | 57 | 225 | 0.0 | 2.6 | 0.00 | 0.00 | 0.00 | ||
| 20260508023513 | 57 | 225 | 0.0 | 4.3 | 0.00 | 0.00 | 0.00 | ||
| 20260508022913 | 57 | 270 | 0.0 | 4.3 | 0.00 | 0.00 | 0.00 | ||
| 20260508022314 | 57 | 270 | 2.6 | 4.3 | 0.00 | 0.00 | 0.00 | ||
| 20260508021713 | 57 | 270 | 0.9 | 4.3 | 0.00 | 0.00 | 0.00 | ||
| 20260508020614 | 57 | 180 | 0.9 | 7.8 | 0.00 | 0.00 | 0.00 | ||
| 20260508020014 | 57 | 270 | 0.9 | 7.8 | 0.00 | 0.00 | 0.00 | ||
| 20260508015414 | 57 | 270 | 1.7 | 4.3 | 0.00 | 0.00 | 0.00 | ||
| 20260508014814 | 57 | 270 | 1.7 | 4.3 | 0.00 | 0.00 | 0.00 | ||
| 20260508013513 | 57 | 225 | 1.7 | 5.2 | 0.00 | 0.00 | 0.00 | ||
| 20260508012914 | 57 | 270 | 1.7 | 4.3 | 0.00 | 0.00 | 0.00 | ||
| 20260508012313 | 57 | 225 | 1.7 | 4.3 | 0.00 | 0.00 | 0.00 | ||
| 20260508011714 | 57 | 225 | 1.7 | 4.3 | 0.00 | 0.00 | 0.00 | ||
| 20260508010516 | 57 | 270 | 0.9 | 4.3 | 0.00 | 0.00 | 0.00 | ||
| 20260508005916 | 57 | 180 | 0.0 | 2.6 | 0.00 | 0.00 | 0.00 | ||
| 20260508005315 | 57 | 270 | 1.7 | 2.6 | 0.00 | 0.00 | 0.00 | ||
| 20260508004715 | 57 | 315 | 0.0 | 4.3 | 0.00 | 0.00 | 0.00 | ||
| 20260508004114 | 57 | 270 | 1.7 | 3.5 | 0.00 | 0.00 | 0.00 | ||
| 20260508003514 | 57 | 270 | 0.9 | 5.2 | 0.00 | 0.00 | 0.00 | ||
| 20260508002913 | 57 | 315 | 1.7 | 5.2 | 0.00 | 0.00 | 0.00 | ||
| 20260508002314 | 57 | 225 | 0.0 | 5.2 | 0.00 | 0.00 | 0.00 | ||
| 20260508001713 | 57 | 270 | 0.9 | 5.2 | 0.00 | 0.00 | 0.00 | ||
| 20260508000413 | 57 | 270 | 0.9 | 2.6 | 0.00 | 0.00 | 0.00 | ||
| 20260507235813 | 57 | 225 | 0.9 | 2.6 | 0.00 | 0.00 | 0.00 | ||
| 20260507235213 | 56 | 270 | 0.9 | 2.6 | 0.00 | 0.00 | 0.00 | ||
| 20260507234612 | 57 | 270 | 0.9 | 4.3 | 0.00 | 0.00 | 0.00 | ||
| 20260507234013 | 57 | 225 | 1.7 | 4.3 | 0.00 | 0.00 | 0.00 | ||
| 20260507233413 | 57 | 270 | 1.7 | 4.3 | 0.00 | 0.00 | 0.00 | ||
| 20260507232813 | 57 | 270 | 0.9 | 4.3 | 0.00 | 0.00 | 0.00 | ||
| 20260507232213 | 57 | 225 | 1.7 | 4.3 | 0.00 | 0.00 | 0.00 | ||
| 20260507231614 | 57 | 180 | 0.0 | 4.3 | 0.00 | 0.00 | 0.00 | ||
| 20260507230515 | 57 | 270 | 0.9 | 5.2 | 0.00 | 0.00 | 0.00 | ||
| 20260507225914 | 57 | 270 | 0.9 | 6.1 | 0.00 | 0.00 | 0.00 | ||
| 20260507225314 | 57 | 225 | 0.9 | 4.3 | 0.00 | 0.00 | 0.00 | ||
| 20260507224715 | 57 | 180 | 0.0 | 3.5 | 0.00 | 0.00 | 0.00 | ||
| 20260507224114 | 57 | 270 | 0.9 | 5.2 | 0.00 | 0.00 | 0.00 | ||
| 20260507223513 | 57 | 135 | 0.0 | 5.2 | 0.00 | 0.00 | 0.00 | ||
| 20260507222913 | 58 | 270 | 0.0 | 6.1 | 0.00 | 0.00 | 0.00 | ||
| 20260507222314 | 58 | 270 | 1.7 | 7.0 | 0.00 | 0.00 | 0.00 | ||
| 20260507221713 | 58 | 135 | 0.9 | 8.7 | 0.00 | 0.00 | 0.00 | ||
| 20260507220517 | 58 | 225 | 2.6 | 6.1 | 0.00 | 0.00 | 0.00 | ||
| 20260507215916 | 58 | 225 | 2.6 | 7.8 | 0.00 | 0.00 | 0.00 | ||
| 20260507215315 | 58 | 270 | 1.7 | 7.8 | 0.00 | 0.00 | 0.00 | ||
| 20260507214714 | 58 | 225 | 0.9 | 6.1 | 0.00 | 0.00 | 0.00 | ||
| 20260507214115 | 58 | 225 | 2.6 | 6.1 | 0.00 | 0.00 | 0.00 | ||
| 20260507213514 | 58 | 225 | 0.9 | 6.1 | 0.00 | 0.00 | 0.00 | ||
| 20260507212915 | 58 | 225 | 0.9 | 7.0 | 0.00 | 0.00 | 0.00 | ||
| 20260507212314 | 58 | 225 | 0.9 | 4.3 | 0.00 | 0.00 | 0.00 | ||
| 20260507211714 | 58 | 270 | 0.9 | 5.2 | 0.00 | 0.00 | 0.00 | ||
| 20260507210516 | 58 | 225 | 1.7 | 7.8 | 0.00 | 0.00 | 0.00 | ||
| 20260507205917 | 58 | 270 | 1.7 | 7.0 | 0.00 | 0.00 | 0.00 | ||
| 20260507205316 | 58 | 225 | 2.6 | 7.0 | 0.00 | 0.00 | 0.00 | ||
| 20260507204716 | 59 | 270 | 5.2 | 7.0 | 0.00 | 0.00 | 0.00 | ||
| 20260507204116 | 59 | 225 | 2.6 | 7.8 | 0.00 | 0.00 | 0.00 | ||
| 20260507203515 | 59 | 225 | 2.6 | 7.8 | 0.00 | 0.00 | 0.00 | ||
| 20260507202915 | 59 | 180 | 1.7 | 7.8 | 0.00 | 0.00 | 0.00 | ||
| 20260507202314 | 60 | 270 | 2.6 | 8.7 | 0.00 | 0.00 | 0.00 | ||
| 20260507201715 | 60 | 225 | 0.9 | 8.7 | 0.00 | 0.00 | 0.00 | ||
| 20260507200418 | 60 | 225 | 2.6 | 7.8 | 0.00 | 0.00 | 0.00 | ||
| 20260507195817 | 60 | 225 | 1.7 | 7.8 | 0.00 | 0.00 | 0.00 | ||
| 20260507195217 | 60 | 360 | 0.9 | 6.1 | 0.00 | 0.00 | 0.00 | ||
| 20260507194616 | 60 | 270 | 3.5 | 6.1 | 0.00 | 0.00 | 0.00 | ||
| 20260507194016 | 60 | 225 | 0.9 | 6.1 | 0.00 | 0.00 | 0.00 | ||
| 20260507193416 | 60 | 225 | 1.7 | 6.1 | 0.00 | 0.00 | 0.00 | ||
| 20260507192815 | 60 | 270 | 0.9 | 6.1 | 0.00 | 0.00 | 0.00 | ||
| 20260507192215 | 60 | 45 | 0.0 | 11.3 | 0.00 | 0.00 | 0.00 | ||
| 20260507191615 | 61 | 180 | 1.7 | 8.7 | 0.00 | 0.00 | 0.00 | ||
| 20260507190416 | 61 | 225 | 2.6 | 8.7 | 0.00 | 0.00 | 0.00 | ||
| 20260507185814 | 62 | 225 | 0.0 | 7.8 | 0.00 | 0.00 | 0.00 | ||
| 20260507185215 | 62 | 225 | 6.1 | 7.8 | 0.00 | 0.00 | 0.00 | ||
| 20260507184615 | 62 | 225 | 2.6 | 7.8 | 0.00 | 0.00 | 0.00 | ||
| 20260507184015 | 62 | 135 | 0.9 | 6.1 | 0.00 | 0.00 | 0.00 | ||
| 20260507183414 | 62 | 270 | 4.3 | 7.8 | 0.00 | 0.00 | 0.00 | ||
| 20260507182814 | 62 | 180 | 1.7 | 7.8 | 0.00 | 0.00 | 0.00 | ||
| 20260507182213 | 62 | 270 | 0.9 | 9.6 | 0.00 | 0.00 | 0.00 | ||
| 20260507181612 | 63 | 225 | 3.5 | 9.6 | 0.00 | 0.00 | 0.00 | ||
| 20260507180415 | 63 | 225 | 6.1 | 7.8 | 0.00 | 0.00 | 0.00 | ||
| 20260507175815 | 63 | 270 | 5.2 | 7.8 | 0.00 | 0.00 | 0.00 | ||
| 20260507175215 | 62 | 270 | 2.6 | 7.8 | 0.00 | 0.00 | 0.00 | ||
| 20260507174616 | 62 | 180 | 1.7 | 7.8 | 0.00 | 0.00 | 0.00 | ||
| 20260507174015 | 62 | 270 | 6.1 | 7.8 | 0.00 | 0.00 | 0.00 | ||
| 20260507173415 | 62 | 270 | 1.7 | 6.1 | 0.00 | 0.00 | 0.00 | ||
| 20260507172814 | 62 | 180 | 0.9 | 8.7 | 0.00 | 0.00 | 0.00 | ||
| 20260507172214 | 62 | 225 | 4.3 | 8.7 | 0.00 | 0.00 | 0.00 | ||
| 20260507171614 | 62 | 270 | 1.7 | 7.8 | 0.00 | 0.00 | 0.00 | ||
| 20260507170517 | 61 | 180 | 1.7 | 6.1 | 0.00 | 0.00 | 0.00 | ||
| 20260507165920 | 61 | 270 | 3.5 | 6.1 | 0.00 | 0.00 | 0.00 | ||
| 20260507165317 | 61 | 225 | 0.9 | 6.1 | 0.00 | 0.00 | 0.00 | ||
| 20260507164717 | 61 | 315 | 0.9 | 6.1 | 0.00 | 0.00 | 0.00 | ||
| 20260507164116 | 61 | 225 | 1.7 | 6.1 | 0.00 | 0.00 | 0.00 | ||
| 20260507163517 | 61 | 270 | 0.9 | 5.2 | 0.00 | 0.00 | 0.00 | ||
| 20260507162916 | 61 | 270 | 0.9 | 2.6 | 0.00 | 0.00 | 0.00 | ||
| 20260507162314 | 61 | 135 | 0.0 | 4.3 | 0.00 | 0.00 | 0.00 | ||
| 20260507161713 | 61 | 180 | 0.0 | 4.3 | 0.00 | 0.00 | 0.00 | ||
| 20260507160415 | 61 | 270 | 1.7 | 5.2 | 0.00 | 0.00 | 0.00 | ||
| 20260507155815 | 61 | 270 | 0.0 | 2.6 | 0.00 | 0.00 | 0.00 | ||
| 20260507155214 | 61 | 225 | 0.9 | 4.3 | 0.00 | 0.00 | 0.00 |